This is the latest recevied weather packets stored in our database for station/object KD4MBW. If no packets are shown the sender has not sent any weather packets the latest 10 day(s).
| Time | Temp. | Humidity | Pressure | Rain* | Wind** | Luminosity | Snow |
|---|---|---|---|---|---|---|---|
| 1778159471 | 25° C | 95% | 1015.3 hPa | 0 mm | - | 179 W/m² | - |
| 1778159168 | 25° C | 95% | 1015 hPa | 0 mm | - | 144 W/m² | - |
| 1778158866 | 25° C | 96% | 1014.9 hPa | 0 mm | - | 89 W/m² | - |
| 1778158565 | 25° C | 96% | 1015.2 hPa | 0 mm | - | 112 W/m² | - |
| 1778158261 | 25° C | 96% | 1015 hPa | 0 mm | - | 85 W/m² | - |
| 1778157958 | 24.44° C | 96% | 1015.1 hPa | 0 mm | - | 150 W/m² | - |
| 1778157656 | 24.44° C | 96% | 1015 hPa | 0 mm | - | 119 W/m² | - |
| 1778157354 | 24.44° C | 96% | 1015 hPa | 0 mm | - | 156 W/m² | - |
| 1778157050 | 24.44° C | 96% | 1014.7 hPa | 0 mm | - | 126 W/m² | - |
| 1778156745 | 24.44° C | 96% | 1014.6 hPa | 0 mm | - | 150 W/m² | - |
| 1778156441 | 24.44° C | 97% | 1014.6 hPa | 0 mm | - | 139 W/m² | - |
| 1778156137 | 24.44° C | 97% | 1014.6 hPa | 0 mm | - | 113 W/m² | - |
| 1778155833 | 23.89° C | 97% | 1014.4 hPa | 0 mm | - | 101 W/m² | - |
| 1778155529 | 23.89° C | 97% | 1014.4 hPa | 0 mm | - | 92 W/m² | - |
| 1778155227 | 23.89° C | 98% | 1014.4 hPa | 0 mm | - | 78 W/m² | - |
| 1778154923 | 23.89° C | 98% | 1014.4 hPa | 0 mm | - | 56 W/m² | - |
| 1778154619 | 23.89° C | 98% | 1014.6 hPa | 0 mm | - | 42 W/m² | - |
| 1778154315 | 23.89° C | 98% | 1014.4 hPa | 0 mm | - | 32 W/m² | - |
| 1778154012 | 23.89° C | 98% | 1014 hPa | 0 mm | - | 26 W/m² | - |
| 1778153709 | 23.89° C | 98% | 1014 hPa | 0 mm | - | 22 W/m² | - |
| 1778153407 | 23.89° C | 98% | 1013.7 hPa | 0 mm | - | 19 W/m² | - |
| 1778153104 | 23.89° C | 98% | 1013.8 hPa | 0 mm | - | 15 W/m² | - |
| 1778152801 | 23.89° C | 99% | 1013.6 hPa | 0 mm | - | 11 W/m² | - |
| 1778152498 | 23.33° C | 99% | 1013.5 hPa | 0 mm | - | 7 W/m² | - |
| 1778152194 | 23.33° C | 99% | 1013.5 hPa | 0 mm | - | 5 W/m² | - |
* Rain latest hour (hover to see other rain measurements)
** Current wind speed in m/s (hover to see current wind gust speed)